Regional Weather Roundup
Issued by NWS

Home | Current Version | Previous Version | Text Only | Print | Product List | Glossary On
Versions: 1 2 3 4 5 6 7 8 9 10 11 12 13 14 15 16 17 18 19 20 21 22 23 24 25 26 27 28 29 30 31 32 33 34 35 36 37 38 39 40 41 42 43 44 45 46 47 48 49 50
000
ASUS43 KDTX 171310
RWRMI
MICHIGAN HOURLY REGIONAL WEATHER ROUNDUP
NATIONAL WEATHER SERVICE DETROIT/PONTIAC MI
900 AM EDT WED SEP 17 2014

NOTE: "FAIR" INDICATES FEW OR NO CLOUDS BELOW 12,000 FEET WITH NO
SIGNIFICANT WEATHER AND/OR OBSTRUCTION TO VISIBILITY.

MIZ047>049-052>055-059>063-066>070-074>076-081>083-171400-
SOUTHEAST LOWER MICHIGAN

CITY           SKY/WX    TMP DP  RH WIND       PRES   REMARKS
ADRIAN         SUNNY     46  44  93 W3        30.09R
ALMA           SUNNY     45  44  95 CALM      30.06S
ANN ARBOR      SUNNY     45  43  93 CALM      30.07S
BAD AXE        SUNNY     48  46  95 SW3       30.04S
DETROIT CITY   SUNNY     53  43  68 NW5       30.07S
DETROIT        MOSUNNY   50  44  80 W5        30.08R
FLINT          SUNNY     49  44  83 SW3       30.07S
GROSSE ILE     SUNNY     52  46  82 NW3       30.06S
HILLSDALE      SUNNY     47  47  99 CALM      30.07S
HOWELL         SUNNY     46  44  94 W3        30.06F

CITY           SKY/WX    TMP DP  RH WIND       PRES   REMARKS
JACKSON        SUNNY     47  44  90 CALM      30.07S
LAMBERTVILLE   SUNNY     48  46  93 W3        30.08S
LANSING        SUNNY     48  43  82 SW6       30.07F
LAPEER         NOT AVBL
MASON          SUNNY     45  44  97 CALM      30.07S
MONROE         SUNNY     48  46  93 CALM      30.06S
MT. CLEMENS    MOSUNNY   52  44  74 W3        30.05S
PONTIAC        MOSUNNY   50  42  74 W3        30.05F
PORT HOPE        N/A     51  45  79 SW9       30.00S
PORT HURON     SUNNY     46  46 100 CALM      30.05S
TRI CITIES     SUNNY     48  43  82 SW7       30.05S
YPSILANTI      SUNNY     52  45  77 CALM      30.08S
$$
MIZ043>046-050>051-056>058-064>065-071>073-077>080-171400-
SOUTHWEST LOWER MICHIGAN

CITY           SKY/WX    TMP DP  RH WIND       PRES   REMARKS
BATTLE CREEK   SUNNY     47  44  90 S3        30.07S
BENTON HARBOR  SUNNY     48  45  89 SE3       30.06F
BIG RAPIDS     SUNNY     43  43 100 CALM      30.04S
COLDWATER      SUNNY     46  46  97 CALM      30.08S
HOLLAND        SUNNY     50  44  80 S6        30.06F
GRAND RAPIDS   MOSUNNY   47  44  90 S3        30.06S
KALAMAZOO      SUNNY     47  46  97 S3        30.08S
MARSHALL       SUNNY     44  43  97 CALM      30.07S
MUSKEGON       MOSUNNY   49  45  86 SE3       30.05S
$$
MIZ016>042-171400-
NORTHERN LOWER MICHIGAN

CITY           SKY/WX    TMP DP  RH WIND       PRES   REMARKS
ALPENA         CLOUDY    49  46  90 CALM      29.98S
BEAVER ISLAND  PTSUNNY   57  52  81 SW10      29.95S
BELLAIRE       CLOUDY    53  49  87 SW3       30.00R
CADILLAC       SUNNY     46  45  99 CALM      30.02S
CHARLEVOIX     CLOUDY    58  53  83 SW10      29.99F
FRANKFORT      SUNNY     51  47  88 CALM      30.01S
GAYLORD        CLOUDY    49  47  93 SW6       29.99S
GRAYLING       MOSUNNY   51  49  93 W6        30.01S
HARBOR SPRINGS CLOUDY    55  50  85 CALM      29.97S
HOUGHTON LAKE  SUNNY     51  48  89 SW5       30.02R
MANISTEE       SUNNY     43  41  93 E3        30.03S
OSCODA         MOSUNNY   49  46  86 SW3       29.99S
PELLSTON       MOSUNNY   56  52  86 SW7       29.96S
TRAVERSE CITY  MOSUNNY   53  48  83 VRB3      29.99S
$$
MIZ007>008-015-171400-
EASTERN UPPER MICHIGAN

CITY           SKY/WX    TMP DP  RH WIND       PRES   REMARKS
KINROSS        CLOUDY    48  46  93 SE6       29.93F
MACKINAC ISLAN PTSUNNY   54  53  94 S7        29.94F
NEWBERRY       CLOUDY    49  47  93 SW7       29.93R
S. S. MARIE    CLOUDY    47  45  93 CALM      29.93F
$$
MIZ004>006-011>014-085-171400-
CENTRAL UPPER MICHIGAN

CITY           SKY/WX    TMP DP  RH WIND       PRES   REMARKS
MANISTIQUE     MOSUNNY   53  49  84 SW3       29.94S
ESCANABA       SUNNY     50  45  81 W6        29.96S
MENOMINEE      MOSUNNY   48  43  81 W3        29.98S
SAWYER-GWINN   PTSUNNY   48  45  87 CALM      29.94R
$$
MIZ001>003-009>011-084-171400-
WESTERN UPPER MICHIGAN

CITY           SKY/WX    TMP DP  RH WIND       PRES   REMARKS
IRON MOUNTAIN  SUNNY     50  42  74 W3        29.96R
HOUGHTON       LGT RAIN  50  46  86 W10       29.92R
COPPER HARBOR    N/A     45  43  93 VRB5      29.94R
IRONWOOD       CLOUDY    48  45  87 N3        29.93R
$$

ABBREVIATIONS USED IN REMARKS
   TC - TEMPERATURE IN CELSIUS
  WCI - WIND CHILL INDEX
   HX - HEAT INDEX
  VSB - VISIBILITY




USA.gov is the U.S. government's official web portal to all federal, state and local government web resources and services.